Weather History for Pellston, MI

Change the Weather History Date:

Saturday, June 7, 2014

  Actual Average Record
Temperature  
Mean Temperature 63 °F -  
Max Temperature 82 °F 75 °F 93 °F (2011)
Min Temperature 44 °F 49 °F 31 °F (1949)
Degree Days  
Heating Degree Days 2    
Growing Degree Days 13 (Base 50)    
Moisture  
Dew Point 48 °F    
Average Humidity 59    
Maximum Humidity 93    
Minimum Humidity 34    
Precipitation  
Precipitation 0.00 in - - ()
Sea Level Pressure  
Sea Level Pressure 29.97 in    
Wind  
Wind Speed 4 mph (WNW)    
Max Wind Speed 13 mph    
Max Gust Speed -    
Visibility 10 miles    
Events      
Averages and records for this station are not official NWS values.
T = Trace of Precipitation, MM = Missing Value Source: NWS Daily Summary

Daily Weather History Graph

Daily Weather History Graph

Search for Another Location

Airport:

Trip Planner

Search our weather history database for the weather conditions in past years. The results will help you decide how hot, cold, wet, or windy it might be!

Date:

Astronomy

Jun. 07, 2014 Rise Set
Actual Time 5:50 AM EDT 9:25 PM EDT
Civil Twilight 5:13 AM EDT 10:03 PM EDT
Nautical Twilight 4:23 AM EDT 10:53 PM EDT
Astronomical Twilight 3:17 AM EDT 11:59 PM EDT
Moon 3:26 PM EDT (6/7) 2:29 AM EDT (6/7)
Length of Visible Light 16h 49m
Length of Day
15h 34m
Waxing Gibbous, 67% of the Moon is Illuminated
Jun 7
Waxing Gibbous
Jun 13
Full
Jun 19
Last Quarter
Jun 27
New
Jul 5
First Quarter

Hourly Weather History & Observations

Time (EDT) Temp. Dew Point Humidity Pressure Visibility Wind Dir Wind Speed Gust Speed Precip Events Conditions
12:54 AM 48.9 °F 46.9 °F 93% 30.01 in 10.0 mi Calm Calm - N/A   Clear
1:54 AM 48.0 °F 46.0 °F 93% 30.01 in 10.0 mi Calm Calm - N/A   Clear
2:54 AM 46.9 °F 44.1 °F 90% 30.03 in 10.0 mi NW 4.6 mph - N/A   Clear
3:54 AM 46.0 °F 44.1 °F 93% 30.01 in 10.0 mi Calm Calm - N/A   Clear
4:54 AM 45.0 °F 43.0 °F 93% 30.00 in 10.0 mi Calm Calm - N/A   Clear
5:54 AM 44.1 °F 42.1 °F 93% 30.01 in 8.0 mi Calm Calm - N/A   Clear
6:54 AM 48.9 °F 46.0 °F 90% 30.04 in 10.0 mi Calm Calm - N/A   Clear
9:54 AM 73.9 °F 46.9 °F 38% 30.01 in 10.0 mi SSW 6.9 mph - N/A   Clear
10:54 AM 77.0 °F 48.0 °F 36% 29.99 in 10.0 mi South 8.1 mph - N/A   Clear
11:54 AM 79.0 °F 48.0 °F 34% 29.99 in 10.0 mi WSW 8.1 mph - N/A   Clear
12:54 PM 80.1 °F 50.0 °F 35% 29.99 in 10.0 mi SW 10.4 mph - N/A   Clear
1:54 PM 82.0 °F 51.1 °F 34% 29.97 in 10.0 mi West 8.1 mph - N/A   Clear
2:54 PM 81.0 °F 50.0 °F 34% 29.95 in 10.0 mi WNW 10.4 mph - N/A   Partly Cloudy
3:54 PM 82.0 °F 51.1 °F 34% 29.93 in 10.0 mi West 9.2 mph - N/A   Clear
4:54 PM 78.1 °F 50.0 °F 37% 29.93 in 10.0 mi ENE 12.7 mph - N/A   Clear
5:54 PM 78.1 °F 48.9 °F 36% 29.94 in 10.0 mi NE 9.2 mph - N/A   Partly Cloudy
6:54 PM 73.9 °F 48.0 °F 40% 29.93 in 10.0 mi ENE 4.6 mph - N/A   Overcast
7:54 PM 73.0 °F 50.0 °F 44% 29.93 in 10.0 mi North 5.8 mph - N/A   Overcast
8:54 PM 66.9 °F 51.1 °F 57% 29.93 in 10.0 mi NW 8.1 mph - N/A   Scattered Clouds
9:54 PM 63.0 °F 50.0 °F 63% 29.92 in 10.0 mi Calm Calm - N/A   Clear
10:54 PM 62.1 °F 50.0 °F 65% 29.93 in 10.0 mi NNW 3.5 mph - N/A   Clear
11:54 PM 61.0 °F 46.0 °F 58% 29.92 in 10.0 mi NW 4.6 mph - N/A   Overcast